Location: Unspecified
(48.8656°N, 0.0000°E)
Time: 06:17:20
(UTC+00:00)

Vanguard 3 - Pass Details

Date: 20 June 2019
Orbit: 508 x 3262 km, 33.3° (Epoch: 13 October)

Event Time Altitude Azimuth Distance (km) Brightness Sun altitude
Rises 10:08:31 0° 203° (SSW) 6,330 11.8 56.2°
Reaches altitude 10° 10:16:14 10° 181° (S) 4,645 11.5 57.2°
Maximum altitude 10:21:05 13° 158° (SSE) 3,889 11.3 57.8°
Drops below altitude 10° 10:25:06 10° 134° (SE) 3,696 11.2 58.3°
Sets 10:29:43 0° 108° (ESE) 4,125 11.2 58.8°
